Regional Weather Roundup
Issued by NWS

Home | Current Version | Previous Version | Text Only | Print | Product List | Glossary On
Versions: 1 2 3 4 5 6 7 8 9 10 11 12 13 14 15 16 17 18 19 20 21 22 23 24 25 26 27 28 29 30 31 32 33 34 35 36 37 38 39 40 41 42 43 44 45 46 47 48
000
ASUS43 KMPX 131410
RWRMN
WEATHER ROUNDUP FOR MINNESOTA
NATIONAL WEATHER SERVICE TWIN CITIES/CHANHASSEN MN
900 AM CDT THU AUG 13 2020


NOTE: "FAIR" INDICATES FEW OR NO CLOUDS BELOW 12,000 FEET WITH NO
SIGNIFICANT WEATHER AND/OR OBSTRUCTIONS TO VISIBILITY. N/A MEANS
CURRENT SKY AND/OR WEATHER CONDITIONS ARE NOT AVAILABLE.

MNZ060>063-068>070-131500-
   Twin Cities Metro

CITY           SKY/WX    TMP DP  RH WIND       PRES   REMARKS
TWIN CITIES    PTSUNNY   73  67  81 SE7       30.02R
ST PAUL        MOSUNNY   74  67  78 SE10      30.02R
CRYSTAL        MOSUNNY   74  67  78 SE9       30.00R
BLAINE         MOSUNNY   75  70  83 SE7       30.01R
LAKEVILLE      MOSUNNY   73  68  83 SE3       30.02R
EDEN PRAIRIE   PTSUNNY   73  68  84 SE8       30.00R
SOUTH ST PAUL  MOSUNNY   73  66  79 SE6       30.02S
LAKE ELMO      FAIR      70  66  88 SE7       30.04S
$$
MNZ001>005-007-008-013>017-022>024-027-028-131500-
   Northwest Minnesota

CITY           SKY/WX    TMP DP  RH WIND       PRES   REMARKS
BEMIDJI        CLOUDY    64  64 100 SE14      29.95S FOG
HALLOCK        CLOUDY    68  64  88 SE15      29.83F
ROSEAU         CLOUDY    64 N/A N/A SE12G17   29.91S
WARROAD        CLOUDY    64  61  88 SE15      29.93S
THIEF RVR FALL CLOUDY    66  63  90 SE17      29.88F
CROOKSTON      PTSUNNY   70  66  88 SE16      29.84S
FOSSTON        CLOUDY    64  63  94 SE12G20   29.90S
DETROIT LAKES  FOG       64  64 100 SE17G24   29.90F VSB 3/4
MOORHEAD       CLOUDY    75  66  73 SE17G24   29.83F
PARK RAPIDS    FOG       65  63  93 SE13      29.95F VSB 3/4
MAHNOMEN       CLOUDY    67  65  93 SE13G20   29.88F
$$
MNZ006-009>011-018-025>026-131500-
   North Central Minnesota

CITY           SKY/WX    TMP DP  RH WIND       PRES   REMARKS
BAUDETTE       PTSUNNY   64  60  87 SE14G24   29.97R
FLAG ISLAND      N/A     66  59  77 SE14      29.95R
INTL FALLS     SUNNY     67  59  75 SE12G21   29.99F
WASKISH        MOSUNNY   64  61  88 SE10G17   29.95S
BIG FORK       CLOUDY    64  59  82 SE7       30.05S
LONGVILLE      CLOUDY    64  63  94 SE6       29.98F
GRAND RAPIDS   CLOUDY    62  60  93 SE7G16    30.04R
CRANE LAKE     SUNNY     64  61  88 SE3       30.05F
ORR            SUNNY     66  57  72 SE10      30.01F
COOK           PTSUNNY   66  59  77 SE6       30.04S
WALKER         CLOUDY    64  63  97 SE7       29.96F
$$
MNZ012-019>021-037-131500-
   Northeast Minnesota

CITY           SKY/WX    TMP DP  RH WIND       PRES   REMARKS
DULUTH         CLOUDY    64  59  83 SE13      30.07S
ELY            MOSUNNY   68  57  68 SE9G20    30.08S
HIBBING        CLOUDY    63  57  81 SE10      30.05R
EVELETH        CLOUDY    65  59  81 SE10      30.07R
DULUTH HARBOR  CLOUDY    66  59  77 E6        30.07S
TWO HARBORS    SUNNY     64  55  72 E6        30.08S
SILVER BAY       N/A     64  63  94 NE8       30.10F
GRAND MARAIS     N/A     62  55  77 NE10      30.12F
G MARAIS ARPRT PTSUNNY   66  55  68 E6        30.15F
$$
MNZ029>031-032-039>041-046>048-054>057-064-131500-
   West Central Minnesota

CITY           SKY/WX    TMP DP  RH WIND       PRES   REMARKS
FERGUS FALLS   PTSUNNY   73  70  88 SE16      29.87F
WHEATON        MOSUNNY   73  70  88 SE15      29.86F
MORRIS         PTSUNNY   73  73 100 S15       29.90F
ALEXANDRIA     CLOUDY    71  71 100 SE10      29.95F
ELBOW LAKE     PTSUNNY   73  71  92 SE17      29.89F
WADENA         FOG       64  64 100 SE12      29.93F VSB 1/2
GLENWOOD       MOSUNNY   73  72  94 S15       29.94F
APPLETON       SUNNY     75  70  83 S10G16    29.89F
BENSON         PTSUNNY   75  72  88 S13G18    29.92F
ORTONVILLE     SUNNY     73  72  94 SE9       29.87F
MADISON        SUNNY     79  73  83 S12       29.89F
WILLMAR        FAIR      77  72  83 S7        29.98S
$$
MNZ033>034-036-042>043-049>051-058-059-131500-
   Central Minnesota

CITY           SKY/WX    TMP DP  RH WIND       PRES   REMARKS
ST CLOUD       CLOUDY    68  67  96 E7        29.99S FOG
SAUK CENTRE    CLOUDY    71  71 100 SE8       29.96F FOG
PAYNESVILLE    CLOUDY    73  73 100 SE5       29.97F FOG
AITKIN         CLOUDY    64  61  88 SE9       30.00S
PINE RIVER     CLOUDY    63  61  94 SE9       30.01S FOG
BRAINERD       FOG       67  64  90 SE8       29.99S VSB 3/4
STAPLES        FOG       64  64 100 SE6       29.96F VSB 3/4
LONG PRAIRIE   FOG       66  66 100 SE7       29.97F VSB 1/4
LITTLE FALLS   CLOUDY    66  66 100 SE7       29.98F FOG
CAMP RIPLEY    FOG       66  66  99 SE7       29.99F VSB 7/8
LITCHFIELD     CLOUDY    75  75 100 S3        29.98S
BUFFALO        CLOUDY    71  68  90 MISG      30.01S FOG
MAPLE LAKE       N/A     72  71  97 SE6       30.01S FOG
HUTCHINSON     CLOUDY    74  73  98 S7        30.00R
$$
MNZ037-044-045-052-053-131500-
   East Central Minnesota

CITY           SKY/WX    TMP DP  RH WIND       PRES   REMARKS
PRINCETON      CLOUDY    70  66  88 SE5       30.01S FOG
MORA           CLOUDY    64  63  94 SE7       30.03F
CAMBRIDGE      SUNNY     72  63  73 SE8       30.01F
RUSH CITY      CLOUDY    67  63  87 SE6       30.03S
MOOSE LAKE       N/A     64  61  88 CALM      30.03S
HINCKLEY       CLOUDY    68  64  88 SE5       30.03F
CLOQUET        RAIN      63  57  82 SE5       30.06S
MCGREGOR       CLOUDY    64  63  94 SE10      30.03S
$$
MNZ071>073-080-081-089-090-097-098-131500-
   Southwest Minnesota

CITY           SKY/WX    TMP DP  RH WIND       PRES   REMARKS
MONTEVIDEO     MOSUNNY   75  70  83 SW7       29.92F
GRANITE FALLS  SUNNY     77  73  89 S13       29.94F
CANBY          SUNNY     77  71  82 SW12G17   29.91F
MARSHALL       MOSUNNY   77  72  84 S14       29.93F
REDWOOD FALLS  CLOUDY    75  71  87 S10       29.95F
OLIVIA         MOSUNNY   75  72  88 S10G18    29.95F
PIPESTONE        N/A     73  72  94 S12       29.97S
WINDOM         PTSUNNY   73  70  88 S10G16    29.99S
WORTHINGTON    CLOUDY    72  71  97 S12       30.00S
JACKSON        PTSUNNY   73  70  88 S8        30.01F
TRACY          SUNNY     77  69  77 S12G18    29.96S
SLAYTON        PTSUNNY   74  67  77 S9        29.99F
$$
MNZ065>067-074>077-082>085-091>093-131500-
   South Central Minnesota

CITY           SKY/WX    TMP DP  RH WIND       PRES   REMARKS
MANKATO        CLOUDY    72  72 100 S6        30.02R
NEW ULM        CLOUDY    73  72  94 S9        29.99S
ST JAMES         N/A     73  72  94 S8        29.99S
FAIRMONT       CLOUDY    74  72  93 S10       30.02R
GLENCOE        CLOUDY    72  70  95 S5        30.00R FOG
FARIBAULT      MOSUNNY   73  70  88 SE9       30.03S
OWATONNA       SUNNY     73  68  83 S13       30.03R
ALBERT LEA     MOSUNNY   73  70  88 S8          N/A
$$
MNZ078>079-086>088-094>096-131500-
   Southeast Minnesota

CITY           SKY/WX    TMP DP  RH WIND       PRES   REMARKS
ROCHESTER      SUNNY     74  65  73 S14       30.06S
RED WING       MOSUNNY   75  64  69 SE7       30.03S
STANTON        MOSUNNY   75  68  78 S10       30.01S
DODGE CENTER   SUNNY     72  66  83 S13       30.05S
WINONA         PTSUNNY   73  64  73 SE8       30.07S
AUSTIN         MOSUNNY   73  68  83 S8        30.05S
PRESTON        SUNNY     73  63  72 S9        30.08S
$$
ABBREVIATIONS USED IN REMARKS
   TC - TEMPERATURES IN CELSIUS
  WCI - WIND CHILL INDEX
   HX - HEAT INDEX
  VSB - VISIBILITY
$$



USA.gov is the U.S. government's official web portal to all federal, state and local government web resources and services.